Location: Arcones
(41.1182°N, 3.7238°W)
Time: 08:19:09
(UTC+00:00)

Cosmos 2263 Rocket - Pass Details

Date: 16 March 2026
Orbit: 823 x 846 km, 71.0° (Epoch: 18 April)

Event Time Altitude Azimuth Distance (km) Brightness Sun altitude
Rises 21:47:51 0° 346° (NNW) 3,397 6.0 -37.1°
Reaches altitude 10° 21:50:47 10° 360° (N) 2,454 5.0 -37.5°
Enters shadow 21:51:49 14° 8° (N) 2,168 4.6 -37.7°
